[[{"header":{"parameterUnit":"m.s-1","parameterCategory":1,"la1":30.2991,"la2":30.254,"lo1":-89.0895,"lo2":-89.0444,"dy":0.0017,"dx":0.0017,"nx":28,"ny":28,"refTime":"2023-08-21T21:00:00:Z","depth":0,"parameterNumber":2,"parameterNumberName":"U-component_of_WINDS"},"data":[0,0,0,0,0,0,0,0,0,0,0,0,0,0,0,0,0,0,0,0,0,0,0,0,0,0,0,0,0,0,0,0,0,0,0,0,0,0,0,0,0,0,0,0,0,0,0,0,0,0,0,0,0,0,0,0,0,0,3.0367,3.0368,0,3.0464,3.0465,3.0466,3.0464,3.0462,3.0461,3.046,3.0555,3.0559,3.0563,0,0,0,0,0,0,0,0,0,0,0,0,0,3.0174,3.0177,3.0367,3.0368,3.0369,3.0464,3.0465,3.0467,3.0464,3.0462,3.0461,3.0459,3.0554,3.0558,3.0563,0,0,0,0,0,0,0,0,0,0,0,0,0,3.0263,3.0178,3.0366,3.0379,3.0381,3.0464,3.0465,3.0467,3.0464,3.0462,3.046,3.0458,3.0553,3.0558,3.0564,3.0638,0,0,3.0581,3.0583,0,0,0,0,0,0,0,0,3.0258,3.027,3.0376,3.0379,3.0381,3.045,3.0432,3.0524,3.0465,3.0433,3.046,3.0457,3.0521,3.053,3.0552,3.0643,3.0647,3.0581,3.0585,3.0587,3.0589,0,0,0,0,0,0,0,3.0252,3.0266,3.0405,3.0378,3.0381,3.0379,3.0389,3.045,3.0487,3.0435,3.0435,3.0447,3.0522,3.0547,3.0554,3.0648,3.0581,3.0586,3.059,3.0592,3.0803,3.0805,0,0,0,0,0,0,3.0243,3.0261,3.0402,3.0408,3.0313,3.0384,3.0395,3.043,3.0486,3.0493,3.0449,3.0447,3.0538,3.0548,3.0558,3.0647,3.0587,3.0593,3.0596,3.0801,3.0804,3.0806,0,0,0,0,0,0,3.0239,3.0256,3.0398,3.0334,3.0352,3.0389,3.0428,3.0433,3.0457,3.0496,3.0503,3.0467,3.0537,3.055,3.0618,3.0651,3.0595,3.06,3.0798,3.0802,3.0805,3.0828,0,0,0,0,0,0,3.0234,3.0255,3.0284,3.0335,3.0356,3.0458,3.043,3.0436,3.0467,3.0465,3.0515,3.0521,3.0536,3.061,3.0624,3.0657,3.0605,3.0795,3.08,3.0804,3.0824,3.0832,3.0838,0,0,0,0,0,3.0227,3.0286,3.0286,3.0303,3.0394,3.046,3.0472,3.0489,3.047,3.0499,3.0524,3.052,3.0645,3.0617,3.0632,3.0668,3.0793,3.0799,3.0803,3.0821,3.083,3.0838,0,0,0,0,0,0,3.0237,3.0293,3.0293,3.0372,3.0411,3.046,3.0497,3.0498,3.0543,3.0539,3.0557,3.0568,3.0636,3.0659,3.0627,3.0743,3.0717,3.0725,3.0725,3.0734,3.074,3.0732,3.0609,0,0,0,0,0,3.0249,3.0299,3.0345,3.041,3.043,3.046,3.049,3.0499,3.0541,3.0557,3.0587,3.0626,3.0674,3.0706,3.0752,3.0828,3.0838,3.0861,3.0867,3.0873,3.0879,3.0919,3.0929,3.0822,3.0822,3.0822,0,0,3.0273,3.031,3.034,3.0413,3.0445,3.0495,3.0474,3.0529,3.0565,3.0565,3.0631,3.0655,3.0699,3.0772,3.0805,3.0793,3.0911,3.0879,3.0883,3.0886,3.0925,3.0935,3.0944,3.0826,3.0825,3.0824,0,0,3.0342,3.0376,3.0433,3.0465,3.0514,3.0534,3.0548,3.0596,3.0612,3.068,3.068,3.0723,3.0806,3.0838,3.0864,3.0945,3.0942,3.096,3.0994,3.1033,3.1041,3.1049,3.1076,3.1086,3.0966,3.0966,3.0967,0,3.0365,3.0442,3.0461,3.0516,3.0547,3.055,3.0607,3.0637,3.0698,3.0718,3.0705,3.0808,3.0839,3.0917,3.0937,3.0959,3.0974,3.0953,3.1039,3.1047,3.1054,3.108,3.109,3.0968,3.0968,3.0968,3.0968,0,3.0467,3.0521,3.056,3.062,3.0656,3.0711,3.0737,3.0771,3.0777,3.0798,3.0865,3.0902,3.0955,3.0975,3.0982,3.1055,3.1046,3.1035,3.1009,3.1066,3.109,3.11,3.0971,3.097,3.097,3.0969,0,0,3.0544,3.0615,3.0629,3.0656,3.071,3.0751,3.0805,3.0859,3.0886,3.0928,3.0973,3.1043,3.1034,3.1064,3.1075,3.1109,3.1169,3.1095,3.1096,3.1105,3.1249,3.1255,3.1266,3.1168,3.117,3.1171,3.1244,0,3.0617,3.0716,3.0735,3.082,3.0868,3.0872,3.092,3.0957,3.0978,3.1021,3.1043,3.1092,3.1077,3.1095,3.113,3.1154,3.1197,3.1149,3.1207,3.1209,3.1194,3.1279,3.1286,3.1353,3.1254,3.1256,3.1257,0,3.0716,3.0762,3.0852,3.0899,3.092,3.0962,3.1012,3.1054,3.1096,3.1108,3.1143,3.1149,3.1204,3.1177,3.1252,3.1219,3.1244,3.1259,3.1262,3.1267,3.1235,3.1284,3.1375,3.1385,3.1273,3.1271,3.127,0,3.0761,3.0845,3.0909,3.0932,3.0989,3.1019,3.1044,3.1084,3.1115,3.1158,3.1177,3.1226,3.1252,3.1289,3.1308,3.1287,3.1381,3.1356,3.1391,3.139,3.1409,3.1407,3.1504,3.1429,3.1428,3.1428,3.1428,0,3.084,3.0894,3.093,3.097,3.103,3.1051,3.1109,3.1134,3.1169,3.1212,3.1219,3.1258,3.1281,3.1324,3.1339,3.1398,3.141,3.142,3.1423,3.1419,3.1417,3.1434,3.1429,3.1431,3.143,3.143,3.1429,0,3.0899,3.0926,3.0996,3.1045,3.1058,3.11,3.1141,3.1178,3.12,3.1254,3.1267,3.13,3.135,3.1373,3.1435,3.1445,3.1512,3.1512,3.1498,3.1498,3.1532,3.1527,3.1641,3.1656,3.1572,3.1573,3.1574,0,3.0947,3.0989,3.1042,3.1072,3.1098,3.1146,3.1177,3.1199,3.1231,3.1282,3.1313,3.1364,3.1406,3.1486,3.1514,3.1561,3.1561,3.1598,3.1568,3.1562,3.156,3.1556,3.1559,3.1603,3.1603,3.1604,3.1605,0,3.1028,3.1039,3.1085,3.1135,3.1173,3.1213,3.1253,3.1276,3.1304,3.1339,3.1392,3.1424,3.1488,3.1538,3.1587,3.161,3.1611,3.1614,3.1624,3.1619,3.1608,3.1612,3.151,3.1611,3.161,3.161,3.1609,3.1609,3.1082,3.1119,3.1162,3.1212,3.1245,3.1281,3.1319,3.1345,3.1389,3.1443,3.1453,3.1508,3.1548,3.1614,3.164,3.1682,3.1673,3.1689,3.1692,3.1695,3.1696,3.1603,3.1691,3.1691,3.1691,3.1691,3.1691,0,3.1161,3.1189,3.1236,3.1291,3.133,3.133,3.1374,3.1406,3.1455,3.1493,3.1534,3.1593,3.1641,3.1674,3.1722,3.175,3.1751,3.1761,3.1758,3.1763,3.1702,3.1688,3.1759,3.1759,3.1759,3.1759,3.1759,3.1759,3.1207,3.1269,3.1285,3.1363,3.139,3.1445,3.147,3.1503,3.1533,3.16,3.164,3.1662,3.1696,3.1748,3.1791,3.1799,3.1816,3.1826,3.1833,3.1775,3.1768,3.1761,3.1747,3.183,3.183,3.1891,3.1891,3.1892]},{"header":{"parameterUnit":"m.s-1","parameterCategory":1,"la1":30.2991,"la2":30.254,"lo1":-89.0895,"lo2":-89.0444,"dy":0.0017,"dx":0.0017,"nx":28,"ny":28,"refTime":"2023-08-21T21:00:00:Z","depth":0,"parameterNumber":3,"parameterNumberName":"V-component_of_WINDS"},"data":[0,0,0,0,0,0,0,0,0,0,0,0,0,0,0,0,0,0,0,0,0,0,0,0,0,0,0,0,0,0,0,0,0,0,0,0,0,0,0,0,0,0,0,0,0,0,0,0,0,0,0,0,0,0,0,0,0,0,1.8176,1.8176,0,1.8186,1.8186,1.8186,1.8155,1.8154,1.8153,1.8152,1.8161,1.8162,1.8163,0,0,0,0,0,0,0,0,0,0,0,0,0,1.813,1.8131,1.8176,1.8176,1.8177,1.8186,1.8186,1.8186,1.8155,1.8154,1.8153,1.8152,1.816,1.8162,1.8163,0,0,0,0,0,0,0,0,0,0,0,0,0,1.8146,1.8131,1.8176,1.8162,1.8161,1.8186,1.8186,1.8186,1.8155,1.8154,1.8153,1.8151,1.816,1.8161,1.8163,1.8201,0,0,1.8168,1.8169,0,0,0,0,0,0,0,0,1.8145,1.8147,1.8164,1.8163,1.8162,1.8168,1.8172,1.8191,1.8156,1.8158,1.8152,1.8151,1.8164,1.8165,1.817,1.8202,1.8202,1.8168,1.8169,1.817,1.817,0,0,0,0,0,0,0,1.8144,1.8147,1.818,1.8164,1.8163,1.8155,1.8156,1.8176,1.8168,1.8157,1.8155,1.8157,1.8163,1.8169,1.817,1.8202,1.8168,1.817,1.8171,1.8171,1.8264,1.8266,0,0,0,0,0,0,1.8145,1.8146,1.818,1.818,1.815,1.8157,1.8158,1.8167,1.8168,1.8167,1.8158,1.8155,1.8166,1.8168,1.817,1.8214,1.817,1.8171,1.8172,1.8263,1.8264,1.8266,0,0,0,0,0,0,1.8144,1.8148,1.8179,1.8163,1.8166,1.8159,1.817,1.8168,1.8174,1.8169,1.8167,1.8165,1.8165,1.8168,1.8194,1.8214,1.8172,1.8174,1.8261,1.8263,1.8265,1.8303,0,0,0,0,0,0,1.8143,1.8148,1.8163,1.8163,1.8167,1.8203,1.8172,1.8169,1.8177,1.8173,1.8175,1.8174,1.8165,1.8191,1.8195,1.8216,1.8175,1.8259,1.8262,1.8265,1.83,1.8307,1.8312,0,0,0,0,0,1.8141,1.8173,1.8164,1.8168,1.8186,1.8204,1.8207,1.8196,1.8178,1.8193,1.819,1.8174,1.8211,1.8194,1.8198,1.822,1.8258,1.8261,1.8264,1.8298,1.8305,1.8312,0,0,0,0,0,0,1.8175,1.8173,1.8162,1.8196,1.8201,1.8199,1.8217,1.8204,1.8214,1.821,1.8196,1.8197,1.8225,1.8225,1.8206,1.8256,1.8231,1.8236,1.8255,1.8263,1.8268,1.8268,1.8176,0,0,0,0,0,1.8187,1.8203,1.82,1.8229,1.8232,1.8224,1.8232,1.8223,1.8228,1.8229,1.8228,1.8232,1.8245,1.8254,1.8265,1.83,1.8299,1.8316,1.8322,1.8327,1.8331,1.8349,1.8356,1.8277,1.8277,1.8277,0,0,1.821,1.8211,1.8222,1.8236,1.8239,1.8255,1.8226,1.8245,1.8257,1.8232,1.8256,1.8255,1.8259,1.8289,1.8302,1.829,1.8353,1.8331,1.8335,1.8337,1.8353,1.836,1.8367,1.8279,1.8279,1.8279,0,0,1.8262,1.8265,1.8289,1.8292,1.8297,1.8291,1.8297,1.8297,1.8296,1.832,1.8302,1.8315,1.8337,1.8341,1.8345,1.8397,1.8382,1.8401,1.8432,1.8449,1.8455,1.8461,1.8479,1.8486,1.8405,1.8405,1.8405,0,1.8291,1.8315,1.8303,1.8323,1.8329,1.8308,1.8332,1.8335,1.8343,1.8348,1.8334,1.8361,1.8362,1.8392,1.8405,1.8409,1.8415,1.8401,1.8456,1.8461,1.8466,1.8483,1.849,1.8407,1.8407,1.8407,1.8406,0,1.835,1.8367,1.8387,1.8395,1.8403,1.8425,1.8416,1.8425,1.8416,1.8411,1.8435,1.8436,1.8447,1.8453,1.8444,1.8482,1.8474,1.8458,1.8433,1.8476,1.8492,1.8498,1.841,1.841,1.8409,1.8408,0,0,1.8425,1.8425,1.8432,1.8435,1.8438,1.8451,1.8471,1.8482,1.849,1.8496,1.8513,1.8532,1.8517,1.8522,1.8513,1.8528,1.8568,1.851,1.851,1.852,1.861,1.8622,1.8629,1.8558,1.856,1.856,1.8609,0,1.8475,1.8511,1.85,1.8535,1.855,1.853,1.8547,1.8551,1.8547,1.8559,1.8554,1.8568,1.8547,1.855,1.8564,1.856,1.8586,1.8557,1.8573,1.8574,1.8573,1.8638,1.8651,1.8697,1.8615,1.8616,1.8617,0,1.8539,1.8548,1.8585,1.8584,1.859,1.8606,1.8615,1.8626,1.8629,1.8625,1.8631,1.8618,1.8637,1.8612,1.8638,1.8618,1.8624,1.8623,1.8625,1.8626,1.8598,1.8641,1.8711,1.8718,1.8627,1.8626,1.8625,0,1.8589,1.861,1.8634,1.8637,1.8637,1.8649,1.865,1.8651,1.8658,1.8665,1.8669,1.8679,1.8684,1.8691,1.8681,1.8664,1.8708,1.8682,1.8705,1.8706,1.8716,1.8715,1.8788,1.872,1.872,1.872,1.8719,0,1.8647,1.867,1.8657,1.8672,1.8697,1.8684,1.8709,1.8707,1.8708,1.8722,1.8705,1.8718,1.8704,1.8715,1.8707,1.873,1.8732,1.873,1.8727,1.8731,1.8732,1.8735,1.8732,1.8721,1.8721,1.8721,1.872,0,1.8707,1.8699,1.8725,1.8722,1.8722,1.8741,1.8738,1.8752,1.8747,1.8764,1.8768,1.8759,1.8772,1.8763,1.8776,1.877,1.88,1.8793,1.8799,1.8797,1.882,1.8818,1.8898,1.8908,1.8833,1.8834,1.8835,0,1.8745,1.8762,1.8762,1.877,1.8771,1.8785,1.8791,1.8778,1.8786,1.879,1.8803,1.8815,1.8823,1.8845,1.8839,1.8849,1.8842,1.8869,1.8843,1.8847,1.8842,1.8841,1.8843,1.8875,1.8876,1.8876,1.8877,0,1.8812,1.8807,1.8817,1.8826,1.8835,1.8841,1.8846,1.8854,1.8841,1.885,1.8863,1.887,1.8883,1.8894,1.8902,1.8901,1.8887,1.8885,1.8891,1.8895,1.8898,1.8896,1.8813,1.8883,1.8883,1.8882,1.8882,1.8882,1.8862,1.8876,1.8877,1.8889,1.8892,1.8897,1.8909,1.8905,1.8916,1.8925,1.8917,1.8932,1.8934,1.8943,1.8944,1.8956,1.8944,1.8953,1.8955,1.8957,1.896,1.8896,1.8957,1.8957,1.8957,1.8956,1.8956,0,1.8927,1.8927,1.8938,1.8946,1.8955,1.8941,1.8945,1.8954,1.8968,1.897,1.8979,1.8993,1.9004,1.9,1.9009,1.9019,1.9013,1.9022,1.9021,1.9021,1.897,1.8964,1.9027,1.9027,1.9027,1.9027,1.9027,1.9027,1.8963,1.8986,1.8981,1.9005,1.9004,1.9019,1.9023,1.9027,1.9029,1.9046,1.9055,1.9052,1.9051,1.906,1.9069,1.9067,1.9072,1.9083,1.9079,1.9032,1.9025,1.9018,1.9012,1.9084,1.9085,1.9129,1.913,1.913]}]]